Voltar ao catálogo

STARLINK-37898

AtivoComunicaçõesSSO
NORAD 69705·PAYLOAD·🇺🇸 United States

Lançado Jun 28, 2026 de Vandenberg Space Force Base

Loading…

Próximas Passagens (próximas 24 horas)

TLE

AtualizadoSource: CelesTrak SupGP

Época: Sep 15, 2026, 03:27 UTC

1 69705C 26147B   26258.14423611 -.00064964  00000+0 -20165-2 0  2586
2 69705  97.2821 294.5057 0000902  99.5913  62.9607 15.33475379    15

Acompanhe STARLINK-37898 em tempo real com AllMySat

Download on the App Store